[[{"header":{"parameterUnit":"m.s-1","parameterCategory":1,"la1":30.2991,"la2":30.254,"lo1":-89.0895,"lo2":-89.0444,"dy":0.0017,"dx":0.0017,"nx":28,"ny":28,"refTime":"2023-08-13T03:00:00:Z","depth":0,"parameterNumber":2,"parameterNumberName":"U-component_of_WINDS"},"data":[0,0,0,0,0,0,0,0,0,0,0,0,0,0,0,0,0,0,0,0,0,0,0,0,0,0,0,0,0,0,0,0,0,0,0,0,0,0,0,0,0,0,0,0,0,0,0,0,0,0,0,0,0,0,0,0,0,0,4.0284,4.0285,0,4.034,4.0341,4.0341,4.0232,4.0228,4.0224,4.0221,4.0278,4.0283,4.0287,0,0,0,0,0,0,0,0,0,0,0,0,0,4.0082,4.0087,4.0284,4.0285,4.0286,4.034,4.0341,4.0341,4.0232,4.0228,4.0223,4.0219,4.0276,4.0282,4.0288,0,0,0,0,0,0,0,0,0,0,0,0,0,4.0157,4.0088,4.0284,4.0238,4.0234,4.034,4.0341,4.0342,4.0233,4.0228,4.0222,4.0217,4.0274,4.0281,4.0289,4.0442,0,0,4.0311,4.0314,0,0,0,0,0,0,0,0,4.0153,4.0165,4.0244,4.0241,4.0237,4.0273,4.029,4.0375,4.0235,4.0234,4.0221,4.0215,4.0281,4.0287,4.0309,4.0445,4.0447,4.0312,4.0316,4.0319,4.0321,0,0,0,0,0,0,0,4.0148,4.0162,4.0306,4.0245,4.0241,4.0214,4.0218,4.0306,4.0287,4.0233,4.0225,4.0234,4.0278,4.0303,4.031,4.0448,4.0311,4.0318,4.0322,4.0325,4.0709,4.0715,0,0,0,0,0,0,4.0149,4.0158,4.0304,4.0308,4.0181,4.0222,4.0227,4.0267,4.0286,4.0283,4.0238,4.0228,4.0293,4.0302,4.0312,4.049,4.0319,4.0326,4.033,4.0703,4.071,4.0717,0,0,0,0,0,0,4.0145,4.0163,4.0302,4.0231,4.0247,4.0231,4.0277,4.0271,4.0296,4.0289,4.0285,4.0267,4.0289,4.0301,4.041,4.0491,4.0329,4.0336,4.0696,4.0705,4.0714,4.085,0,0,0,0,0,0,4.014,4.0162,4.0221,4.0233,4.0251,4.04,4.0282,4.0276,4.0309,4.0296,4.0315,4.0313,4.0286,4.04,4.0417,4.0498,4.0342,4.0689,4.07,4.0711,4.0838,4.0862,4.0883,0,0,0,0,0,4.0133,4.0257,4.0224,4.0242,4.0324,4.0405,4.0415,4.0381,4.0316,4.0374,4.0369,4.0313,4.048,4.0412,4.043,4.0515,4.0684,4.0697,4.071,4.0828,4.0857,4.0882,0,0,0,0,0,0,4.0255,4.0258,4.0221,4.0354,4.038,4.0386,4.0459,4.0414,4.0459,4.0446,4.0401,4.0407,4.0523,4.053,4.0454,4.0663,4.057,4.0588,4.0654,4.0682,4.0704,4.0699,4.0348,0,0,0,0,0,4.0297,4.0363,4.0363,4.0479,4.0494,4.0475,4.0509,4.048,4.0506,4.0516,4.052,4.0547,4.0604,4.0644,4.0697,4.0839,4.084,4.0906,4.0929,4.0947,4.0962,4.1035,4.1064,4.076,4.0759,4.0759,0,0,4.0385,4.0395,4.044,4.0504,4.0521,4.059,4.0485,4.0563,4.0613,4.0528,4.063,4.0634,4.0661,4.0786,4.0841,4.0795,4.1047,4.0964,4.0978,4.0983,4.1052,4.1081,4.1106,4.0768,4.0767,4.0765,0,0,4.058,4.0595,4.0693,4.0712,4.0739,4.0725,4.0749,4.0762,4.0761,4.0863,4.08,4.086,4.0961,4.0982,4.1006,4.1209,4.1157,4.1228,4.1344,4.1416,4.144,4.1461,4.1531,4.1557,4.1243,4.1243,4.1244,0,4.0686,4.0787,4.0749,4.0831,4.086,4.0787,4.0885,4.0905,4.0949,4.097,4.0918,4.1043,4.1056,4.1184,4.1233,4.1256,4.128,4.1224,4.1439,4.146,4.1479,4.1545,4.1572,4.1251,4.1251,4.125,4.1249,0,4.0915,4.0986,4.1062,4.1105,4.1143,4.1233,4.1207,4.1251,4.1219,4.1211,4.1314,4.1327,4.1381,4.141,4.138,4.1534,4.1504,4.1447,4.1353,4.1517,4.1578,4.1603,4.1263,4.126,4.1258,4.1256,0,0,4.1187,4.1207,4.1236,4.1253,4.1278,4.1332,4.1418,4.147,4.1507,4.154,4.1609,4.1697,4.1643,4.1671,4.1643,4.1707,4.1863,4.1641,4.1641,4.168,4.2031,4.2072,4.2102,4.183,4.1835,4.1839,4.2028,0,4.1378,4.1526,4.1494,4.1639,4.1703,4.1634,4.1709,4.1731,4.1726,4.1779,4.1773,4.1834,4.1761,4.1776,4.1836,4.1832,4.1933,4.1818,4.1893,4.1896,4.1886,4.2135,4.2179,4.2357,4.2052,4.2056,4.2059,0,4.1621,4.1662,4.1813,4.1825,4.1851,4.1919,4.1963,4.2016,4.204,4.2031,4.2062,4.2021,4.2105,4.2012,4.2126,4.2049,4.2078,4.208,4.2086,4.209,4.1986,4.2143,4.2413,4.2439,4.2097,4.2094,4.2091,0,4.1802,4.1895,4.1997,4.2015,4.2032,4.2081,4.2091,4.2109,4.2142,4.2181,4.2202,4.2251,4.2277,4.2316,4.2289,4.2224,4.2407,4.2312,4.2401,4.2401,4.2441,4.2438,4.2717,4.2464,4.2463,4.2463,4.2462,0,4.2018,4.2112,4.2078,4.214,4.2244,4.2206,4.231,4.2311,4.2328,4.2389,4.2333,4.2392,4.2354,4.2409,4.2389,4.2485,4.2498,4.2492,4.2485,4.2496,4.2497,4.2513,4.2499,4.247,4.2468,4.2467,4.2466,0,4.2236,4.2217,4.2323,4.2331,4.2335,4.2411,4.2417,4.2475,4.2465,4.2543,4.2559,4.2544,4.2605,4.2583,4.2649,4.2635,4.2758,4.2736,4.2749,4.2743,4.2832,4.2823,4.3129,4.3166,4.2892,4.2894,4.2897,0,4.2374,4.2445,4.246,4.2497,4.2511,4.2571,4.2604,4.257,4.2606,4.2638,4.2692,4.2749,4.2792,4.2894,4.2888,4.2938,4.2915,4.3019,4.2922,4.293,4.2914,4.2909,4.2915,4.3038,4.3041,4.3044,4.3046,0,4.262,4.2607,4.2657,4.2704,4.2745,4.278,4.2811,4.2844,4.2811,4.2855,4.2917,4.2951,4.3018,4.3074,4.3119,4.3128,4.3081,4.3076,4.3099,4.311,4.3114,4.311,4.28,4.3069,4.3067,4.3065,4.3064,4.3063,4.2801,4.286,4.288,4.2937,4.2956,4.2985,4.3039,4.3036,4.3087,4.3139,4.3115,4.3187,4.3208,4.3262,4.3278,4.3333,4.3292,4.3326,4.3334,4.3342,4.3353,4.3107,4.3341,4.334,4.334,4.3339,4.3339,0,4.3042,4.3051,4.3104,4.3148,4.3193,4.3146,4.3176,4.3216,4.328,4.3303,4.3347,4.3418,4.3472,4.3471,4.3521,4.3565,4.3544,4.3579,4.3574,4.3576,4.3387,4.3361,4.3594,4.3594,4.3594,4.3594,4.3594,4.3594,4.3173,4.327,4.3259,4.3364,4.3372,4.3442,4.3463,4.3489,4.3507,4.3589,4.3633,4.3632,4.3645,4.3695,4.3743,4.3741,4.3761,4.3803,4.3793,4.3616,4.359,4.3566,4.3541,4.3808,4.3808,4.3977,4.3979,4.398]},{"header":{"parameterUnit":"m.s-1","parameterCategory":1,"la1":30.2991,"la2":30.254,"lo1":-89.0895,"lo2":-89.0444,"dy":0.0017,"dx":0.0017,"nx":28,"ny":28,"refTime":"2023-08-13T03:00:00:Z","depth":0,"parameterNumber":3,"parameterNumberName":"V-component_of_WINDS"},"data":[0,0,0,0,0,0,0,0,0,0,0,0,0,0,0,0,0,0,0,0,0,0,0,0,0,0,0,0,0,0,0,0,0,0,0,0,0,0,0,0,0,0,0,0,0,0,0,0,0,0,0,0,0,0,0,0,0,0,0.7367,0.7367,0,0.7434,0.7435,0.7436,0.7456,0.7455,0.7455,0.7454,0.7521,0.7523,0.7525,0,0,0,0,0,0,0,0,0,0,0,0,0,0.725,0.7252,0.7367,0.7367,0.7368,0.7434,0.7435,0.7436,0.7456,0.7455,0.7455,0.7454,0.752,0.7523,0.7525,0,0,0,0,0,0,0,0,0,0,0,0,0,0.7307,0.7252,0.7366,0.7386,0.7388,0.7434,0.7435,0.7436,0.7456,0.7455,0.7455,0.7454,0.752,0.7523,0.7526,0.7556,0,0,0.7535,0.7537,0,0,0,0,0,0,0,0,0.7304,0.7311,0.7382,0.7385,0.7388,0.7436,0.7419,0.7476,0.7456,0.743,0.7454,0.7454,0.7493,0.7498,0.7512,0.7559,0.7562,0.7536,0.7538,0.7539,0.754,0,0,0,0,0,0,0,0.73,0.7309,0.7393,0.7383,0.7386,0.739,0.7398,0.743,0.7464,0.7432,0.7434,0.7442,0.7494,0.7509,0.7514,0.7563,0.7536,0.7538,0.754,0.7542,0.7636,0.7637,0,0,0,0,0,0,0.7293,0.7305,0.7391,0.7395,0.7344,0.7393,0.7401,0.7421,0.7463,0.7469,0.7442,0.7442,0.7504,0.751,0.7516,0.7554,0.7539,0.7542,0.7544,0.7635,0.7636,0.7637,0,0,0,0,0,0,0.729,0.7301,0.7388,0.7351,0.7362,0.7395,0.7417,0.7423,0.7437,0.7471,0.7477,0.7451,0.7504,0.7512,0.7546,0.7556,0.7543,0.7546,0.7635,0.7636,0.7636,0.7629,0,0,0,0,0,0,0.7287,0.73,0.7313,0.7351,0.7364,0.7418,0.7418,0.7424,0.7443,0.7444,0.7481,0.7487,0.7504,0.7541,0.7549,0.756,0.7549,0.7634,0.7635,0.7636,0.7628,0.7629,0.763,0,0,0,0,0,0.7283,0.7307,0.7313,0.7323,0.7381,0.7419,0.7426,0.7447,0.7444,0.7456,0.7478,0.7485,0.7554,0.7544,0.7553,0.7566,0.7633,0.7635,0.7636,0.7628,0.7629,0.763,0,0,0,0,0,0,0.7269,0.7313,0.732,0.7358,0.7384,0.7422,0.7439,0.7448,0.7475,0.7475,0.7498,0.7506,0.7538,0.7555,0.7544,0.7596,0.7593,0.7597,0.7584,0.7586,0.7587,0.7582,0.7551,0,0,0,0,0,0.727,0.7298,0.7335,0.7365,0.7378,0.7406,0.7423,0.7436,0.7464,0.7475,0.7499,0.7525,0.7552,0.757,0.7597,0.763,0.7638,0.7643,0.7644,0.7645,0.7648,0.7665,0.7667,0.7641,0.7641,0.7641,0,0,0.7274,0.7301,0.7317,0.7362,0.7385,0.7412,0.7415,0.7444,0.7464,0.748,0.7513,0.7531,0.7561,0.7595,0.7611,0.761,0.7656,0.7647,0.7647,0.7649,0.7667,0.7669,0.7671,0.7642,0.7642,0.7642,0,0,0.7293,0.7317,0.7344,0.7366,0.74,0.7418,0.7424,0.746,0.7473,0.7507,0.7519,0.7542,0.7589,0.761,0.7626,0.7651,0.7659,0.7659,0.7664,0.7681,0.7683,0.7685,0.7693,0.7696,0.7662,0.7662,0.7662,0,0.7293,0.7335,0.7357,0.7385,0.7404,0.7419,0.7446,0.7466,0.7506,0.7518,0.7517,0.7575,0.7596,0.7634,0.764,0.7653,0.766,0.7656,0.7681,0.7684,0.7686,0.7693,0.7696,0.7661,0.7661,0.7661,0.7661,0,0.7332,0.7361,0.7379,0.7418,0.7438,0.7465,0.749,0.7508,0.7518,0.7536,0.7569,0.7595,0.7627,0.7637,0.7648,0.7676,0.7675,0.7677,0.7675,0.7688,0.7695,0.7698,0.7661,0.7661,0.7661,0.7661,0,0,0.7347,0.7396,0.7402,0.7419,0.7457,0.7479,0.7505,0.7537,0.7551,0.7578,0.76,0.7638,0.764,0.7659,0.7672,0.7687,0.7703,0.7687,0.7688,0.7689,0.7734,0.7732,0.7735,0.7708,0.7709,0.7709,0.7731,0,0.7371,0.7421,0.744,0.748,0.7506,0.752,0.7543,0.7567,0.7584,0.7607,0.7625,0.7651,0.7652,0.7664,0.7679,0.7698,0.7713,0.7697,0.7728,0.7729,0.772,0.7739,0.7738,0.7757,0.7735,0.7735,0.7735,0,0.7406,0.7433,0.7476,0.7508,0.752,0.7541,0.757,0.7593,0.762,0.763,0.7651,0.7662,0.7689,0.7684,0.772,0.7709,0.7722,0.7733,0.7735,0.7738,0.7733,0.7743,0.7764,0.7767,0.7741,0.774,0.774,0,0.7411,0.7458,0.749,0.7504,0.7543,0.7557,0.7573,0.76,0.7617,0.7642,0.7653,0.7681,0.7696,0.7716,0.7734,0.773,0.7768,0.7766,0.7777,0.7776,0.7785,0.7784,0.7808,0.7794,0.7794,0.7793,0.7793,0,0.7436,0.7461,0.7492,0.7512,0.754,0.7561,0.7587,0.7605,0.7628,0.7649,0.7663,0.7682,0.7705,0.7727,0.7741,0.7768,0.7774,0.7783,0.7786,0.7782,0.7781,0.7791,0.779,0.7794,0.7794,0.7794,0.7794,0,0.7447,0.7469,0.7504,0.7538,0.7547,0.7566,0.7594,0.7612,0.7628,0.7656,0.7663,0.7688,0.7715,0.7735,0.7769,0.7778,0.7806,0.781,0.7798,0.78,0.781,0.7808,0.7841,0.7846,0.7828,0.7828,0.7828,0,0.7462,0.7482,0.7517,0.7533,0.755,0.7575,0.7592,0.7613,0.763,0.7661,0.7675,0.7703,0.7726,0.7767,0.7788,0.7813,0.7817,0.7827,0.7821,0.7816,0.7817,0.7815,0.7817,0.7828,0.7828,0.7828,0.7828,0,0.7485,0.7494,0.752,0.7548,0.7569,0.7592,0.7616,0.7628,0.7652,0.767,0.7698,0.7716,0.775,0.7777,0.7804,0.7819,0.7827,0.783,0.7833,0.7829,0.7821,0.7825,0.78,0.7829,0.7829,0.7829,0.7829,0.7829,0.7498,0.7516,0.7543,0.757,0.759,0.7611,0.763,0.7648,0.7672,0.7702,0.7712,0.774,0.7764,0.7802,0.7817,0.7839,0.7839,0.7844,0.7846,0.7847,0.7846,0.7817,0.7844,0.7844,0.7844,0.7844,0.7844,0,0.7521,0.7539,0.7564,0.7597,0.7617,0.7624,0.7649,0.7666,0.7691,0.7713,0.7736,0.7766,0.7791,0.7813,0.7839,0.7851,0.7856,0.7857,0.7857,0.786,0.7845,0.7839,0.7854,0.7854,0.7854,0.7854,0.7854,0.7854,0.7536,0.7566,0.7578,0.7617,0.7635,0.7663,0.7677,0.7696,0.7714,0.7748,0.7769,0.7783,0.7805,0.7832,0.7855,0.7861,0.7869,0.787,0.7876,0.7862,0.7861,0.786,0.7854,0.7872,0.7872,0.7889,0.789,0.789]}]]